This demonstration page uses our WeatherBlox Daily Observations layout. Learn more.

Left ArrowRight Arrow

34.74481, -87.66753

Hourly Observations for January 19, 2020

Temp ( °F °C ) Dew Point ( °F °C ) Humidity (%) Winds ( mph kmh ) Pressure ( in mb ) Visibility ( mi km ) Precip ( " mm )
12:53 am 00:53 Clear 43 6.1 25 -3.9 49 49 NW 10 17 30.25 1024 10 16 0.00 0.00
1:53 am 01:53 Clear 41 5 22 -5.6 47 47 NNW 10 17 30.26 1025 10 16 0.00 0.00
2:53 am 02:53 Clear 39 3.9 22 -5.6 50 50 NW 8 13 30.27 1025 10 16 0.00 0.00
3:53 am 03:53 Clear 37 2.8 20 -6.7 50 50 NW 13 20 30.29 1026 10 16 0.00 0.00
4:53 am 04:53 Clear 36 2.2 18 -7.8 48 48 NW 13 20 30.29 1026 10 16 0.00 0.00
5:53 am 05:53 Clear 35 1.7 18 -7.8 50 50 NW 10 17 30.31 1026 10 16 0.00 0.00
6:53 am 06:53 Clear 34 1.1 15 -9.4 46 46 NW 13 20 30.32 1027 10 16 0.00 0.00
7:53 am 07:53 Sunny 35 1.7 17 -8.3 48 48 WNW 12 19 30.34 1028 10 16 0.00 0.00
8:53 am 08:53 Sunny 37 2.8 16 -8.9 42 42 NW 12 19 30.35 1028 10 16 0.00 0.00
9:53 am 09:53 Sunny 39 3.9 16 -8.9 39 39 NW 15 24 30.36 1028 10 16 0.00 0.00
10:53 am 10:53 Sunny 41 5 16 -8.9 36 36 NW 15 24 30.36 1028 10 16 0.00 0.00
11:53 am 11:53 Sunny 43 6.1 15 -9.4 32 32 NW 13 20 30.34 1027 10 16 0.00 0.00
12:53 pm 12:53 Sunny 44 6.7 16 -8.9 32 32 NNW 15 24 30.31 1026 10 16 0.00 0.00
1:53 pm 13:53 Sunny 46 7.8 18 -7.8 32 32 NW 9 15 30.30 1026 10 16 0.00 0.00
2:53 pm 14:53 Sunny 45 7.2 18 -7.8 34 34 NNW 13 20 30.30 1026 10 16 0.00 0.00
3:53 pm 15:53 Sunny 43 6.1 16 -8.9 34 34 NNW 16 26 30.32 1027 10 16 0.00 0.00
4:53 pm 16:53 Sunny 40 4.4 17 -8.3 40 40 NNW 13 20 30.35 1028 10 16 0.00 0.00
5:53 pm 17:53 Clear 38 3.3 18 -7.8 44 44 NNW 13 20 30.37 1029 10 16 0.00 0.00
6:53 pm 18:53 Clear 35 1.7 16 -8.9 46 46 NNW 12 19 30.40 1029 10 16 0.00 0.00
7:53 pm 19:53 Clear 33 0.6 16 -8.9 49 49 N 9 15 30.41 1030 10 16 0.00 0.00
8:53 pm 20:53 Clear 31 -0.6 15 -9.4 52 52 NNW 13 20 30.42 1030 10 16 0.00 0.00
9:53 pm 21:53 Clear 30 -1.1 15 -9.4 54 54 NNW 13 20 30.44 1031 10 16 0.00 0.00
10:53 pm 22:53 Clear 30 -1.1 15 -9.4 54 54 NNW 8 13 30.44 1031 10 16 0.00 0.00
11:53 pm 23:53 Clear 29 -1.7 14 -10 54 54 N 7 11 30.44 1031 10 16 0.00 0.00

Powered by AerisWeather